TimeEST,TemperatureF,Dew PointF,Humidity,Sea Level PressureIn,VisibilityMPH,Wind Direction,Wind SpeedMPH,Gust SpeedMPH,PrecipitationIn,Events,Conditions,WindDirDegrees,DateUTC
12:14 AM,31.6,27.1,83,29.96,10.0,North,4.6,-,N/A,,Overcast,360,2013-03-01 05:14:00
12:35 AM,31.1,27.3,86,29.96,10.0,North,5.8,-,N/A,,Overcast,360,2013-03-01 05:35:00
12:54 AM,31.1,27.5,87,29.96,10.0,North,6.9,-,N/A,,Overcast,10,2013-03-01 05:54:00
1:15 AM,31.1,27.5,87,29.97,10.0,North,6.9,-,N/A,,Overcast,10,2013-03-01 06:15:00
1:35 AM,31.1,27.5,87,29.97,10.0,NNE,8.1,-,N/A,,Overcast,20,2013-03-01 06:35:00
1:54 AM,31.1,26.6,83,29.98,10.0,NNE,6.9,-,N/A,,Overcast,30,2013-03-01 06:54:00
2:15 AM,31.1,26.1,82,29.98,10.0,NNE,8.1,-,N/A,,Overcast,20,2013-03-01 07:15:00
2:34 AM,30.6,24.6,79,29.98,10.0,NNE,9.2,-,N/A,,Overcast,20,2013-03-01 07:34:00
2:55 AM,30.2,24.1,78,29.98,10.0,NNE,6.9,-,N/A,,Overcast,30,2013-03-01 07:55:00
3:15 AM,30.0,23.9,78,29.98,10.0,NNE,5.8,-,N/A,,Overcast,30,2013-03-01 08:15:00
3:34 AM,29.7,23.5,78,29.97,10.0,NNE,8.1,-,N/A,,Overcast,30,2013-03-01 08:34:00
4:15 AM,29.1,22.8,77,29.98,10.0,NE,9.2,-,N/A,,Overcast,40,2013-03-01 09:15:00
4:55 AM,29.1,23.0,78,29.99,10.0,NNE,5.8,-,N/A,,Overcast,30,2013-03-01 09:55:00
5:15 AM,29.1,22.5,76,29.99,10.0,NNE,8.1,-,N/A,,Overcast,30,2013-03-01 10:15:00
5:34 AM,28.9,22.5,77,30.00,10.0,Calm,Calm,-,N/A,,Overcast,0,2013-03-01 10:34:00
5:55 AM,28.9,22.8,78,30.00,10.0,NNE,3.5,-,N/A,,Overcast,30,2013-03-01 10:55:00
6:14 AM,28.8,22.3,77,30.00,10.0,NNE,4.6,-,N/A,,Overcast,20,2013-03-01 11:14:00
6:34 AM,28.8,21.9,76,30.01,10.0,NNE,3.5,-,N/A,,Overcast,30,2013-03-01 11:34:00
7:14 AM,28.4,21.2,74,30.02,10.0,NE,5.8,-,N/A,,Overcast,40,2013-03-01 12:14:00
7:35 AM,28.4,21.2,74,30.03,10.0,NE,5.8,-,N/A,,Overcast,40,2013-03-01 12:35:00
7:55 AM,28.4,21.6,76,30.04,10.0,NNE,4.6,-,N/A,,Overcast,20,2013-03-01 12:55:00
8:35 AM,28.4,21.6,76,30.05,10.0,NNE,5.8,-,N/A,,Overcast,20,2013-03-01 13:35:00
8:55 AM,28.4,21.6,76,30.05,10.0,NNE,5.8,-,N/A,,Overcast,30,2013-03-01 13:55:00
9:14 AM,28.4,21.6,76,30.05,10.0,North,5.8,-,N/A,,Overcast,10,2013-03-01 14:14:00
9:35 AM,28.8,21.9,76,30.06,10.0,NNE,8.1,-,N/A,,Overcast,20,2013-03-01 14:35:00
9:55 AM,28.8,21.7,75,30.06,10.0,NNE,6.9,-,N/A,,Overcast,30,2013-03-01 14:55:00
10:14 AM,29.3,21.7,73,30.06,10.0,NE,5.8,-,N/A,,Overcast,40,2013-03-01 15:14:00
10:35 AM,29.7,22.1,73,30.07,10.0,NE,5.8,-,N/A,,Overcast,50,2013-03-01 15:35:00
10:55 AM,29.8,22.3,73,30.07,10.0,North,8.1,-,N/A,,Overcast,10,2013-03-01 15:55:00
11:14 AM,30.0,22.1,72,30.07,10.0,NNE,9.2,-,N/A,,Overcast,20,2013-03-01 16:14:00
11:35 AM,30.2,21.4,70,30.08,10.0,NE,9.2,-,N/A,,Overcast,40,2013-03-01 16:35:00
11:54 AM,30.4,21.7,70,30.08,10.0,NNE,8.1,-,N/A,,Overcast,30,2013-03-01 16:54:00
12:15 PM,30.2,21.2,69,30.08,10.0,NE,8.1,-,N/A,,Overcast,40,2013-03-01 17:15:00
12:34 PM,29.7,20.5,69,30.08,10.0,NNE,11.5,-,N/A,,Overcast,20,2013-03-01 17:34:00
1:15 PM,30.0,19.8,66,30.07,10.0,North,8.1,-,N/A,,Overcast,360,2013-03-01 18:15:00
1:34 PM,29.8,19.9,67,30.07,10.0,NNE,9.2,-,N/A,,Overcast,20,2013-03-01 18:34:00
1:55 PM,29.7,19.8,67,30.06,10.0,NNE,8.1,-,N/A,,Overcast,30,2013-03-01 18:55:00
2:15 PM,29.8,19.9,67,30.06,10.0,NE,12.7,-,N/A,,Overcast,40,2013-03-01 19:15:00
2:34 PM,29.5,20.1,68,30.05,10.0,NNE,8.1,-,N/A,,Overcast,20,2013-03-01 19:34:00
2:55 PM,29.3,19.9,68,30.05,10.0,NE,13.8,-,N/A,,Mostly Cloudy,40,2013-03-01 19:55:00
3:14 PM,29.1,19.9,69,30.05,10.0,NNE,10.4,-,N/A,,Scattered Clouds,30,2013-03-01 20:14:00
3:35 PM,28.4,19.4,69,30.05,10.0,NE,10.4,-,N/A,,Scattered Clouds,40,2013-03-01 20:35:00
3:55 PM,28.4,19.2,69,30.06,10.0,NE,9.2,-,N/A,,Scattered Clouds,40,2013-03-01 20:55:00
4:14 PM,28.4,18.9,67,30.06,10.0,NNE,9.2,-,N/A,,Scattered Clouds,20,2013-03-01 21:14:00
4:35 PM,28.4,19.2,69,30.07,10.0,NNE,6.9,-,N/A,,Clear,20,2013-03-01 21:35:00
4:55 PM,28.2,19.4,70,30.07,10.0,NNE,6.9,-,N/A,,Scattered Clouds,30,2013-03-01 21:55:00
5:14 PM,27.5,18.9,70,30.07,10.0,NE,6.9,-,N/A,,Mostly Cloudy,40,2013-03-01 22:14:00
5:35 PM,27.0,19.0,72,30.08,10.0,NE,6.9,-,N/A,,Overcast,50,2013-03-01 22:35:00
5:55 PM,26.6,18.5,71,30.08,10.0,ENE,9.2,-,N/A,,Overcast,60,2013-03-01 22:55:00
6:14 PM,25.9,18.3,73,30.09,10.0,ENE,9.2,-,N/A,,Overcast,60,2013-03-01 23:14:00
6:35 PM,25.7,18.3,74,30.10,10.0,ENE,6.9,-,N/A,,Overcast,60,2013-03-01 23:35:00
6:54 PM,25.5,18.3,74,30.10,10.0,NE,8.1,-,N/A,,Overcast,50,2013-03-01 23:54:00
7:14 PM,25.5,18.1,74,30.10,10.0,NNE,6.9,-,N/A,,Overcast,20,2013-03-02 00:14:00
7:35 PM,25.3,18.0,74,30.11,10.0,NE,9.2,-,N/A,,Overcast,50,2013-03-02 00:35:00
7:54 PM,24.8,17.6,74,30.12,10.0,NNE,6.9,-,N/A,,Overcast,20,2013-03-02 00:54:00
8:15 PM,24.6,17.6,75,30.12,10.0,NE,5.8,-,N/A,,Overcast,50,2013-03-02 01:15:00
8:35 PM,24.6,16.7,72,30.12,10.0,NNE,5.8,-,N/A,,Overcast,30,2013-03-02 01:35:00
8:54 PM,24.8,16.7,71,30.12,10.0,NE,3.5,-,N/A,,Overcast,40,2013-03-02 01:54:00
9:15 PM,24.8,17.2,73,30.13,10.0,Calm,Calm,-,N/A,,Overcast,0,2013-03-02 02:15:00
9:35 PM,25.2,17.2,72,30.13,10.0,Calm,Calm,-,N/A,,Overcast,0,2013-03-02 02:35:00
9:54 PM,25.5,17.6,72,30.13,10.0,NW,3.5,-,N/A,,Overcast,320,2013-03-02 02:54:00
10:15 PM,25.3,17.6,72,30.13,10.0,NNW,3.5,-,N/A,,Overcast,330,2013-03-02 03:15:00
10:35 PM,25.2,17.6,73,30.12,10.0,NNW,4.6,-,N/A,,Overcast,330,2013-03-02 03:35:00
10:54 PM,25.2,17.6,73,30.12,10.0,NNW,3.5,-,N/A,,Overcast,330,2013-03-02 03:54:00
11:15 PM,25.3,17.6,72,30.12,10.0,NNW,3.5,-,N/A,,Overcast,330,2013-03-02 04:15:00
11:35 PM,25.7,17.8,72,30.11,10.0,NW,3.5,-,N/A,,Overcast,320,2013-03-02 04:35:00
11:54 PM,25.5,17.8,72,30.11,10.0,NNW,3.5,-,N/A,,Overcast,330,2013-03-02 04:54:00